JAT503 SCEL-SCIE

Flight info

Callsign JAT503
Flight time 0h 39m
Altitude 31000
Route GELUS5B GELUS UQ809 ARUNI ARUNI6C
Aircraft A20N/M-SDE2E3FGHIRWXY/LB1

Departure

Time 2026-05-06 16:43
Airport Comodoro Arturo Merino Benítez International Airport (SCEL)

Arrival

Time 2026-05-06 17:22
Airport Carriel Sur International Airport (SCIE)
Time Latitude Longitude Altitude Speed Heading
2026-05-06 16:19 -33.39565 -70.78966 1564 ft 0 kts 184°
2026-05-06 16:33 -33.39553 -70.78965 1564 ft 2 kts 184°
2026-05-06 16:34 -33.39525 -70.78963 1564 ft 2 kts 184°
2026-05-06 16:34 -33.39510 -70.78962 1564 ft 2 kts 175°
2026-05-06 16:34 -33.39501 -70.78963 1564 ft 1 kts 148°
2026-05-06 16:34 -33.39495 -70.78969 1564 ft 1 kts 121°
2026-05-06 16:35 -33.39492 -70.78978 1564 ft 1 kts 86°
2026-05-06 16:35 -33.39493 -70.78987 1564 ft 1 kts 86°
2026-05-06 16:35 -33.39493 -70.78990 1564 ft 0 kts 88°
2026-05-06 16:37 -33.39492 -70.78956 1564 ft 8 kts 89°
2026-05-06 16:38 -33.39471 -70.78880 1564 ft 12 kts 38°
2026-05-06 16:38 -33.39387 -70.78826 1564 ft 16 kts 30°
2026-05-06 16:38 -33.39266 -70.78794 1564 ft 21 kts 359°
2026-05-06 16:38 -33.39107 -70.78804 1564 ft 25 kts 355°
2026-05-06 16:39 -33.38920 -70.78816 1563 ft 24 kts 357°
2026-05-06 16:39 -33.38744 -70.78827 1564 ft 28 kts 356°
2026-05-06 16:39 -33.38570 -70.78834 1563 ft 10 kts 359°
2026-05-06 16:39 -33.38470 -70.78835 1564 ft 18 kts 360°
2026-05-06 16:40 -33.38324 -70.78844 1564 ft 25 kts 355°
2026-05-06 16:40 -33.38153 -70.78859 1564 ft 25 kts 356°
2026-05-06 16:40 -33.37966 -70.78867 1564 ft 29 kts 353°
2026-05-06 16:40 -33.37758 -70.78879 1564 ft 24 kts
2026-05-06 16:41 -33.37634 -70.78869 1564 ft 17 kts 31°
2026-05-06 16:41 -33.37622 -70.78771 1564 ft 14 kts 96°
2026-05-06 16:41 -33.37639 -70.78676 1564 ft 4 kts 155°
2026-05-06 16:41 -33.37682 -70.78669 1565 ft 8 kts 176°
2026-05-06 16:42 -33.37843 -70.78660 1563 ft 52 kts 177°
2026-05-06 16:42 -33.38418 -70.78628 1564 ft 110 kts 177°
2026-05-06 16:42 -33.39343 -70.78582 1566 ft 154 kts 178°
2026-05-06 16:42 -33.40438 -70.78501 2039 ft 156 kts 178°
2026-05-06 16:43 -33.41577 -70.78424 2416 ft 173 kts 178°
2026-05-06 16:43 -33.42824 -70.78349 2838 ft 190 kts 178°
2026-05-06 16:43 -33.44209 -70.78273 3333 ft 206 kts 180°
2026-05-06 16:43 -33.45747 -70.78200 3609 ft 238 kts 180°
2026-05-06 16:44 -33.47523 -70.78124 4017 ft 269 kts 179°
2026-05-06 16:44 -33.49440 -70.78149 4827 ft 281 kts 185°
2026-05-06 16:44 -33.51389 -70.78513 5761 ft 285 kts 195°
2026-05-06 16:44 -33.53269 -70.79291 6748 ft 286 kts 208°
2026-05-06 16:45 -33.54928 -70.80579 7730 ft 284 kts 224°
2026-05-06 16:45 -33.56266 -70.82300 8720 ft 280 kts 238°
2026-05-06 16:45 -33.57029 -70.83550 9360 ft 281 kts 239°
2026-05-06 16:45 -33.58602 -70.86072 10527 ft 290 kts 234°
2026-05-06 16:46 -33.60106 -70.87843 10943 ft 316 kts 226°
2026-05-06 16:46 -33.61255 -70.88996 11194 ft 332 kts 224°
2026-05-06 16:46 -33.63109 -70.90795 11602 ft 352 kts 224°
2026-05-06 16:46 -33.65637 -70.93288 12738 ft 356 kts 225°
2026-05-06 16:47 -33.66922 -70.94586 13400 ft 358 kts 225°
2026-05-06 16:47 -33.68824 -70.96536 14334 ft 360 kts 226°
2026-05-06 16:47 -33.70727 -70.98510 15208 ft 363 kts 226°
2026-05-06 16:47 -33.72641 -71.00506 16096 ft 365 kts 227°
2026-05-06 16:48 -33.74564 -71.02516 16908 ft 368 kts 227°
2026-05-06 16:48 -33.76507 -71.04552 17673 ft 372 kts 227°
2026-05-06 16:48 -33.78465 -71.06601 18472 ft 374 kts 228°
2026-05-06 16:48 -33.80434 -71.08664 19111 ft 377 kts 228°
2026-05-06 16:49 -33.82414 -71.10739 19791 ft 379 kts 227°
2026-05-06 16:49 -33.84415 -71.12837 20465 ft 381 kts 228°
2026-05-06 16:49 -33.86420 -71.14939 21165 ft 384 kts 228°
2026-05-06 16:49 -33.88439 -71.17061 21700 ft 388 kts 229°
2026-05-06 16:50 -33.90506 -71.19177 22356 ft 393 kts 225°
2026-05-06 16:50 -33.92793 -71.21046 22984 ft 403 kts 218°
2026-05-06 16:50 -33.95301 -71.22636 23307 ft 410 kts 214°
2026-05-06 16:50 -33.97866 -71.24191 23848 ft 412 kts 214°
2026-05-06 16:51 -34.00433 -71.25755 24399 ft 414 kts 214°
2026-05-06 16:51 -34.03010 -71.27332 24932 ft 416 kts 215°
2026-05-06 16:51 -34.05571 -71.28903 25311 ft 421 kts 215°
2026-05-06 16:51 -34.08187 -71.30510 25856 ft 421 kts 215°
2026-05-06 16:52 -34.10810 -71.32120 26354 ft 424 kts 215°
2026-05-06 16:52 -34.13444 -71.33740 26775 ft 427 kts 215°
2026-05-06 16:52 -34.16104 -71.35378 27215 ft 429 kts 215°
2026-05-06 16:52 -34.18772 -71.37020 27662 ft 431 kts 215°
2026-05-06 16:53 -34.21449 -71.38669 28043 ft 434 kts 215°
2026-05-06 16:53 -34.24158 -71.40339 28362 ft 437 kts 215°
2026-05-06 16:53 -34.26867 -71.42009 28812 ft 438 kts 215°
2026-05-06 16:53 -34.29591 -71.43690 29200 ft 441 kts 215°
2026-05-06 16:54 -34.32329 -71.45382 29597 ft 443 kts 216°
2026-05-06 16:54 -34.35081 -71.47084 29958 ft 446 kts 216°
2026-05-06 16:54 -34.37856 -71.48801 30294 ft 448 kts 216°
2026-05-06 16:54 -34.40637 -71.50524 30627 ft 450 kts 216°
2026-05-06 16:55 -34.43426 -71.52252 30940 ft 452 kts 216°
2026-05-06 16:55 -34.46197 -71.53969 31045 ft 453 kts 216°
2026-05-06 16:55 -34.48999 -71.55706 31054 ft 452 kts 216°
2026-05-06 16:56 -34.54608 -71.59191 31056 ft 452 kts 216°
2026-05-06 16:56 -34.60207 -71.62676 31056 ft 453 kts 216°
2026-05-06 16:57 -34.65824 -71.66176 31053 ft 453 kts 216°
2026-05-06 16:57 -34.71432 -71.69675 31046 ft 452 kts 216°
2026-05-06 16:58 -34.77030 -71.73172 31039 ft 452 kts 216°
2026-05-06 16:58 -34.82584 -71.76648 31027 ft 451 kts 216°
2026-05-06 16:59 -34.88169 -71.80148 31023 ft 451 kts 216°
2026-05-06 16:59 -34.93747 -71.83651 31032 ft 453 kts 216°
2026-05-06 17:00 -34.99356 -71.87180 31034 ft 453 kts 216°
2026-05-06 17:00 -35.05035 -71.90752 31029 ft 453 kts 217°
2026-05-06 17:01 -35.10613 -71.94271 31018 ft 454 kts 217°
2026-05-06 17:01 -35.16216 -71.97808 30952 ft 453 kts 217°
2026-05-06 17:01 -35.19019 -71.99582 30700 ft 454 kts 217°
2026-05-06 17:02 -35.21815 -72.01354 30459 ft 452 kts 217°
2026-05-06 17:02 -35.24607 -72.03124 30240 ft 451 kts 216°
2026-05-06 17:02 -35.27384 -72.04884 29988 ft 448 kts 216°
2026-05-06 17:02 -35.30152 -72.06639 29732 ft 447 kts 216°
2026-05-06 17:03 -35.32904 -72.08385 29460 ft 445 kts 216°
2026-05-06 17:03 -35.35651 -72.10130 29183 ft 443 kts 216°
2026-05-06 17:03 -35.38391 -72.11874 28903 ft 442 kts 216°
2026-05-06 17:03 -35.41117 -72.13611 28340 ft 441 kts 216°
2026-05-06 17:04 -35.43798 -72.15318 27763 ft 438 kts 217°
2026-05-06 17:04 -35.46492 -72.17033 27182 ft 433 kts 217°
2026-05-06 17:04 -35.49154 -72.18729 26618 ft 429 kts 217°
2026-05-06 17:04 -35.51797 -72.20416 26039 ft 425 kts 217°
2026-05-06 17:05 -35.54408 -72.22085 25476 ft 421 kts 217°
2026-05-06 17:05 -35.57006 -72.23747 24896 ft 418 kts 217°
2026-05-06 17:05 -35.59579 -72.25395 24335 ft 416 kts 217°
2026-05-06 17:05 -35.62141 -72.27037 23745 ft 414 kts 217°
2026-05-06 17:06 -35.64688 -72.28671 23081 ft 412 kts 217°
2026-05-06 17:06 -35.67210 -72.30289 22581 ft 406 kts 217°
2026-05-06 17:06 -35.69705 -72.31888 22029 ft 402 kts 217°
2026-05-06 17:06 -35.72179 -72.33477 21462 ft 399 kts 217°
2026-05-06 17:07 -35.74598 -72.35033 20909 ft 395 kts 217°
2026-05-06 17:07 -35.77028 -72.36597 20348 ft 393 kts 217°
2026-05-06 17:07 -35.79442 -72.38153 19802 ft 391 kts 217°
2026-05-06 17:07 -35.81850 -72.39708 19204 ft 391 kts 217°
2026-05-06 17:08 -35.84252 -72.41256 18631 ft 389 kts 217°
2026-05-06 17:08 -35.86652 -72.42805 18080 ft 387 kts 217°
2026-05-06 17:08 -35.89014 -72.44368 17510 ft 381 kts 220°
2026-05-06 17:08 -35.91264 -72.46065 16945 ft 376 kts 220°
2026-05-06 17:09 -35.93484 -72.47732 16412 ft 373 kts 220°
2026-05-06 17:09 -35.95699 -72.49392 15863 ft 371 kts 219°
2026-05-06 17:09 -35.97904 -72.51044 15327 ft 369 kts 219°
2026-05-06 17:09 -36.00096 -72.52688 14780 ft 366 kts 219°
2026-05-06 17:10 -36.02275 -72.54323 14228 ft 366 kts 219°
2026-05-06 17:10 -36.04419 -72.55932 13653 ft 365 kts 219°
2026-05-06 17:10 -36.06581 -72.57556 13139 ft 362 kts 218°
2026-05-06 17:10 -36.08720 -72.59164 12605 ft 358 kts 218°
2026-05-06 17:11 -36.10841 -72.60760 12080 ft 355 kts 218°
2026-05-06 17:11 -36.12944 -72.62343 11557 ft 353 kts 218°
2026-05-06 17:11 -36.15032 -72.63918 10953 ft 352 kts 217°
2026-05-06 17:11 -36.16998 -72.65406 10276 ft 357 kts 217°
2026-05-06 17:12 -36.19231 -72.67088 10073 ft 343 kts 217°
2026-05-06 17:12 -36.21234 -72.68589 9946 ft 329 kts 217°
2026-05-06 17:12 -36.23154 -72.70030 9830 ft 316 kts 217°
2026-05-06 17:12 -36.24992 -72.71414 9709 ft 303 kts 217°
2026-05-06 17:13 -36.26775 -72.72762 9373 ft 298 kts 217°
2026-05-06 17:13 -36.28545 -72.74108 8959 ft 297 kts 217°
2026-05-06 17:13 -36.30300 -72.75442 8551 ft 296 kts 217°
2026-05-06 17:13 -36.32050 -72.76770 8177 ft 294 kts 217°
2026-05-06 17:14 -36.33787 -72.78089 7796 ft 292 kts 216°
2026-05-06 17:14 -36.35517 -72.79401 7412 ft 291 kts 216°
2026-05-06 17:14 -36.37234 -72.80701 7048 ft 289 kts 216°
2026-05-06 17:14 -36.38953 -72.82005 6667 ft 289 kts 216°
2026-05-06 17:15 -36.40670 -72.83296 6316 ft 288 kts 215°
2026-05-06 17:15 -36.42362 -72.84560 5954 ft 286 kts 215°
2026-05-06 17:15 -36.44062 -72.85827 5615 ft 283 kts 215°
2026-05-06 17:15 -36.45742 -72.87082 5282 ft 281 kts 214°
2026-05-06 17:16 -36.47414 -72.88331 4922 ft 279 kts 215°
2026-05-06 17:16 -36.49054 -72.89558 4542 ft 278 kts 215°
2026-05-06 17:16 -36.50734 -72.90816 4183 ft 277 kts 215°
2026-05-06 17:16 -36.52429 -72.91922 3875 ft 275 kts 208°
2026-05-06 17:17 -36.54159 -72.92913 3569 ft 272 kts 208°
2026-05-06 17:17 -36.55844 -72.93884 3479 ft 260 kts 208°
2026-05-06 17:17 -36.57447 -72.94808 3476 ft 246 kts 208°
2026-05-06 17:17 -36.58951 -72.95672 3482 ft 231 kts 210°
2026-05-06 17:18 -36.60328 -72.96472 3467 ft 217 kts 209°
2026-05-06 17:18 -36.61689 -72.97258 3428 ft 203 kts 210°
2026-05-06 17:18 -36.62921 -72.97968 3269 ft 191 kts 210°
2026-05-06 17:18 -36.64110 -72.98664 2957 ft 188 kts 211°
2026-05-06 17:19 -36.65298 -72.99363 2586 ft 191 kts 210°
2026-05-06 17:19 -36.66484 -73.00056 2410 ft 182 kts 210°
2026-05-06 17:19 -36.67551 -73.00670 2307 ft 158 kts 210°
2026-05-06 17:19 -36.68492 -73.01203 2130 ft 142 kts 211°
2026-05-06 17:20 -36.69375 -73.01713 1824 ft 139 kts 212°
2026-05-06 17:20 -36.70249 -73.02226 1481 ft 138 kts 212°
2026-05-06 17:20 -36.71120 -73.02739 1138 ft 136 kts 212°
2026-05-06 17:20 -36.71936 -73.03215 941 ft 124 kts 210°
2026-05-06 17:21 -36.72676 -73.03658 730 ft 112 kts 208°
2026-05-06 17:21 -36.73387 -73.04066 595 ft 116 kts 207°
2026-05-06 17:21 -36.74118 -73.04483 483 ft 116 kts 208°
2026-05-06 17:21 -36.74884 -73.04931 320 ft 124 kts 209°
2026-05-06 17:22 -36.75641 -73.05381 148 ft 118 kts 207°
2026-05-06 17:22 -36.76367 -73.05796 31 ft 112 kts 206°
2026-05-06 17:22 -36.76940 -73.06134 29 ft 57 kts 204°
2026-05-06 17:22 -36.77220 -73.06289 28 ft 41 kts 194°
2026-05-06 17:23 -36.77444 -73.06309 31 ft 10 kts 184°
2026-05-06 17:23 -36.77505 -73.06313 31 ft 12 kts 183°
2026-05-06 17:23 -36.77572 -73.06315 31 ft 16 kts 179°